Radiation Dose at Monitoring Post of Fukushima Daini Nuclear Power Station
Date,Time,MP-1(microSv/h),MP-2(microSv/h),MP-3(microSv/h),MP-4(microSv/h),MP-5(microSv/h),MP-6(microSv/h),MP-7(microSv/h),Wind Direction,Wind Velocity(m/s),Rain
2019/05/17,00:00,0.195,0.182,0.296,0.278,0.270,0.148,0.091,south-southwest,5.0,No
2019/05/17,00:10,0.194,0.183,0.295,0.279,0.273,0.149,0.091,south-southwest,4.8,No
2019/05/17,00:20,0.196,0.183,0.297,0.279,0.271,0.149,0.091,southwest,3.9,No
2019/05/17,00:30,0.195,0.182,0.296,0.279,0.274,0.150,0.091,southwest,3.1,No
2019/05/17,00:40,0.196,0.183,0.296,0.278,0.272,0.148,0.091,southwest,3.3,No
2019/05/17,00:50,0.196,0.182,0.296,0.278,0.272,0.149,0.091,south-southwest,3.4,No
2019/05/17,01:00,0.195,0.183,0.295,0.279,0.273,0.149,0.091,south-southwest,3.5,No
2019/05/17,01:10,0.196,0.183,0.296,0.280,0.269,0.149,0.092,southwest,3.9,No
2019/05/17,01:20,0.195,0.183,0.298,0.277,0.274,0.149,0.092,southwest,3.1,No
2019/05/17,01:30,0.196,0.183,0.295,0.278,0.272,0.149,0.091,southwest,3.5,No
2019/05/17,01:40,0.196,0.183,0.296,0.280,0.272,0.150,0.091,southwest,2.6,No
2019/05/17,01:50,0.194,0.183,0.296,0.278,0.272,0.149,0.091,southwest,1.9,No
2019/05/17,02:00,0.196,0.184,0.296,0.278,0.271,0.150,0.091,southwest,1.9,No
2019/05/17,02:10,0.195,0.183,0.296,0.278,0.273,0.150,0.091,southwest,2.0,No
2019/05/17,02:20,0.195,0.183,0.296,0.278,0.271,0.149,0.091,southwest,1.9,No
2019/05/17,02:30,0.196,0.184,0.298,0.278,0.273,0.147,0.091,southwest,1.5,No
2019/05/17,02:40,0.195,0.182,0.296,0.279,0.271,0.149,0.091,southwest,1.1,No
2019/05/17,02:50,0.196,0.183,0.296,0.279,0.271,0.149,0.091,southwest,1.0,No
2019/05/17,03:00,0.194,0.183,0.298,0.279,0.274,0.150,0.091,southwest,1.6,No
2019/05/17,03:10,0.195,0.184,0.298,0.279,0.270,0.149,0.091,south-southwest,1.6,No
2019/05/17,03:20,0.197,0.184,0.297,0.280,0.272,0.149,0.091,southwest,0.9,No
2019/05/17,03:30,0.195,0.184,0.296,0.279,0.272,0.148,0.092,southwest,1.1,No
2019/05/17,03:40,0.196,0.183,0.296,0.279,0.270,0.149,0.092,southwest,2.0,No
2019/05/17,03:50,0.196,0.183,0.298,0.280,0.273,0.149,0.092,southwest,1.4,No
2019/05/17,04:00,0.195,0.182,0.297,0.280,0.271,0.149,0.092,west-southwest,1.7,No
2019/05/17,04:10,0.197,0.183,0.296,0.278,0.271,0.149,0.091,southwest,1.5,No
2019/05/17,04:20,0.195,0.184,0.297,0.280,0.273,0.150,0.091,west-southwest,0.7,No
2019/05/17,04:30,0.194,0.181,0.295,0.279,0.269,0.149,0.091,-,CALM,No
2019/05/17,04:40,0.197,0.184,0.297,0.278,0.271,0.149,0.091,-,CALM,No
2019/05/17,04:50,0.195,0.184,0.299,0.280,0.270,0.149,0.091,southwest,1.0,No
2019/05/17,05:00,0.197,0.183,0.296,0.279,0.273,0.149,0.091,northeast,0.6,No
2019/05/17,05:10,0.196,0.183,0.297,0.279,0.272,0.148,0.092,-,CALM,No
2019/05/17,05:20,0.195,0.183,0.296,0.279,0.272,0.149,0.092,-,CALM,No
2019/05/17,05:30,0.197,0.182,0.296,0.278,0.273,0.149,0.091,northeast,1.1,No
2019/05/17,05:40,0.195,0.184,0.297,0.280,0.271,0.149,0.092,north-northeast,1.8,No
2019/05/17,05:50,0.196,0.183,0.297,0.279,0.273,0.149,0.092,north,1.6,No
2019/05/17,06:00,0.197,0.183,0.298,0.279,0.269,0.148,0.092,north-northwest,1.5,No
2019/05/17,06:10,0.196,0.182,0.296,0.280,0.273,0.149,0.091,north-northwest,1.9,No
2019/05/17,06:20,0.197,0.184,0.295,0.278,0.272,0.149,0.093,north,1.8,No
2019/05/17,06:30,0.195,0.183,0.298,0.280,0.274,0.149,0.092,north,1.6,No
2019/05/17,06:40,0.197,0.183,0.295,0.278,0.271,0.149,0.092,north-northeast,1.7,No
2019/05/17,06:50,0.196,0.183,0.298,0.279,0.274,0.149,0.093,north-northeast,2.0,No
2019/05/17,07:00,0.196,0.184,0.294,0.277,0.271,0.150,0.092,north-northeast,1.6,No
2019/05/17,07:10,0.196,0.182,0.297,0.279,0.273,0.149,0.092,north-northeast,1.6,No
2019/05/17,07:20,0.196,0.184,0.293,0.276,0.271,0.150,0.091,-,CALM,No
2019/05/17,07:30,0.197,0.183,0.296,0.279,0.274,0.149,0.091,-,CALM,No
2019/05/17,07:40,0.195,0.183,0.294,0.276,0.270,0.149,0.092,northeast,0.6,No
2019/05/17,07:50,0.195,0.182,0.294,0.279,0.272,0.148,0.092,east,0.8,No
2019/05/17,08:00,0.195,0.183,0.296,0.278,0.271,0.150,0.092,east-southeast,1.3,No
2019/05/17,08:10,0.195,0.183,0.295,0.275,0.271,0.149,0.091,east-southeast,2.2,No
2019/05/17,08:20,0.195,0.182,0.297,0.278,0.272,0.149,0.092,east,2.4,No
2019/05/17,08:30,0.195,0.182,0.295,0.280,0.268,0.150,0.091,east,2.3,No
2019/05/17,08:40,0.194,0.182,0.299,0.276,0.273,0.148,0.092,east,3.1,No
2019/05/17,08:50,0.194,0.184,0.296,0.274,0.272,0.148,0.091,east,3.1,No
2019/05/17,09:00,0.195,0.183,0.297,0.279,0.268,0.148,0.091,east,2.5,No
2019/05/17,09:10,0.194,0.184,0.295,0.279,0.272,0.149,0.092,east-southeast,2.7,No
2019/05/17,09:20,0.195,0.183,0.297,0.277,0.273,0.149,0.091,east-southeast,2.6,No
2019/05/17,09:30,0.194,0.183,0.294,0.275,0.270,0.148,0.091,east-southeast,1.8,No
2019/05/17,09:40,0.196,0.182,0.297,0.279,0.269,0.149,0.091,east-southeast,2.7,No
2019/05/17,09:50,0.194,0.182,0.294,0.279,-,0.148,0.090,east-southeast,3.2,No
2019/05/17,10:00,0.196,0.183,0.298,0.277,-,0.148,0.091,southeast,4.8,No
2019/05/17,10:10,0.194,0.182,0.295,0.278,-,0.149,0.091,southeast,5.1,No
2019/05/17,10:20,0.195,0.182,0.296,0.280,-,0.148,0.091,southeast,5.5,No
2019/05/17,10:30,0.196,0.182,0.296,0.277,-,0.149,0.091,southeast,5.7,No
2019/05/17,10:40,0.194,0.183,0.292,0.277,-,0.148,0.090,southeast,5.0,No
2019/05/17,10:50,0.196,0.182,0.296,0.280,-,0.149,0.091,southeast,5.9,No
2019/05/17,11:00,0.193,0.184,0.296,0.278,-,0.149,0.091,southeast,5.5,No
2019/05/17,11:10,0.196,0.183,0.294,0.276,-,0.148,0.090,southeast,5.6,No
2019/05/17,11:20,0.195,0.182,0.297,0.278,-,0.149,0.091,southeast,4.8,No
2019/05/17,11:30,0.195,0.182,0.297,0.279,-,0.149,0.091,south-southeast,5.5,No
2019/05/17,11:40,0.196,0.183,0.295,0.278,-,0.148,0.090,southeast,4.6,No
2019/05/17,11:50,0.193,0.184,0.294,0.277,-,0.149,0.090,south-southeast,6.4,No
2019/05/17,12:00,0.195,0.182,0.297,0.280,-,0.148,0.091,southeast,6.5,No
2019/05/17,12:10,0.195,0.183,0.295,0.280,-,0.148,0.090,southeast,7.4,No
2019/05/17,12:20,0.193,0.182,0.293,0.277,-,0.148,0.090,southeast,7.1,No
2019/05/17,12:30,0.196,0.182,0.294,0.277,-,0.149,0.091,southeast,8.1,No
2019/05/17,12:40,0.195,0.183,0.296,0.278,-,0.148,0.091,southeast,6.2,No
2019/05/17,12:50,0.194,0.184,0.298,0.280,-,0.148,0.090,south-southeast,8.1,No
2019/05/17,13:00,0.192,0.181,0.296,0.279,-,0.149,0.091,southeast,7.3,No
2019/05/17,13:10,0.196,0.182,0.295,0.278,-,0.147,0.091,south-southeast,6.8,No
2019/05/17,13:20,0.195,0.184,0.293,0.276,-,0.149,0.090,southeast,7.4,No
2019/05/17,13:30,0.194,0.182,0.297,0.278,-,0.149,0.091,south-southeast,4.6,No
2019/05/17,13:40,0.193,0.182,0.297,0.280,-,0.148,0.091,south-southeast,8.6,No
2019/05/17,13:50,0.195,0.183,0.296,0.278,-,0.149,0.091,south-southeast,8.2,No
2019/05/17,14:00,0.196,0.184,0.294,0.276,-,0.150,0.090,south-southeast,7.4,No
2019/05/17,14:10,0.196,0.182,0.292,0.276,-,0.150,0.091,south-southeast,8.9,No
2019/05/17,14:20,0.195,0.182,0.293,0.279,-,0.148,0.091,south-southeast,8.1,No
2019/05/17,14:30,0.194,0.184,0.297,0.281,-,0.149,0.091,south-southeast,9.2,No
2019/05/17,14:40,0.193,0.184,0.300,0.279,-,0.149,0.091,south-southeast,9.2,No
2019/05/17,14:50,0.197,0.183,0.298,0.278,-,0.149,0.091,south-southeast,8.9,No
2019/05/17,15:00,0.196,0.184,0.296,0.280,0.270,0.149,0.091,south-southeast,7.5,No
2019/05/17,15:10,0.194,0.184,0.295,0.281,0.268,0.149,0.091,south-southeast,8.1,No
2019/05/17,15:20,0.193,0.181,0.294,0.279,0.271,0.149,0.091,south-southeast,8.4,No
2019/05/17,15:30,0.193,0.184,0.298,0.284,0.275,0.150,0.091,south,7.8,No
2019/05/17,15:40,0.197,0.184,0.298,0.280,0.271,0.149,0.091,south-southeast,8.5,No
2019/05/17,15:50,0.196,0.183,0.295,0.282,0.271,0.150,0.091,south-southeast,7.4,No
2019/05/17,16:00,0.195,0.184,0.297,0.281,0.269,0.149,0.091,south,6.8,No
2019/05/17,16:10,0.193,0.184,0.298,0.280,0.269,0.150,0.091,south,8.2,No
2019/05/17,16:20,0.194,0.185,0.297,0.282,0.274,0.149,0.091,south-southeast,7.7,No
2019/05/17,16:30,0.197,0.184,0.299,0.279,0.273,0.149,0.091,south-southeast,7.0,No
2019/05/17,16:40,0.197,0.183,0.298,0.281,0.271,0.149,0.091,south-southeast,7.5,No
2019/05/17,16:50,0.193,0.185,0.300,0.280,0.270,0.149,0.091,south-southeast,7.6,No
2019/05/17,17:00,0.197,0.183,0.296,0.281,0.275,0.150,0.091,south,7.5,No
2019/05/17,17:10,0.197,0.184,0.300,0.281,0.274,0.148,0.091,south,8.4,No
2019/05/17,17:20,0.196,0.185,0.297,0.280,0.271,0.150,0.092,south-southeast,9.0,No
2019/05/17,17:30,0.197,0.185,0.297,0.282,0.272,0.150,0.091,south,8.5,No
2019/05/17,17:40,0.195,0.184,0.299,0.279,0.273,0.150,0.091,south-southeast,8.1,No
2019/05/17,17:50,0.197,0.184,0.299,0.283,0.270,0.149,0.091,south-southeast,8.4,No
2019/05/17,18:00,0.196,0.184,0.299,0.279,0.274,0.149,0.091,south,8.4,No
2019/05/17,18:10,0.195,0.184,0.297,0.281,0.271,0.149,0.091,south,7.6,No
2019/05/17,18:20,0.197,0.183,0.299,0.279,0.274,0.149,0.091,south,8.2,No
2019/05/17,18:30,0.195,0.184,0.296,0.281,0.274,0.150,0.091,south,8.3,No
2019/05/17,18:40,0.196,0.184,0.299,0.280,0.273,0.149,0.091,south,8.1,No
2019/05/17,18:50,0.196,0.184,0.297,0.282,0.274,0.149,0.091,south,7.7,No
2019/05/17,19:00,0.196,0.184,0.299,0.282,0.274,0.150,0.091,south,6.8,No
2019/05/17,19:10,0.196,0.184,0.296,0.281,0.274,0.149,0.091,south,7.3,No
2019/05/17,19:20,0.197,0.184,0.299,0.280,0.272,0.150,0.091,south,7.3,No
2019/05/17,19:30,0.196,0.184,0.299,0.281,0.274,0.149,0.092,south,6.2,No
2019/05/17,19:40,0.196,0.184,0.300,0.280,0.273,0.150,0.091,south,5.6,No
2019/05/17,19:50,0.196,0.184,0.297,0.282,0.275,0.149,0.092,south,6.6,No
2019/05/17,20:00,0.197,0.183,0.300,0.279,0.273,0.150,0.091,south,7.0,No
2019/05/17,20:10,0.195,0.183,0.297,0.281,0.274,0.149,0.092,south,6.4,No
2019/05/17,20:20,0.196,0.185,0.300,0.279,0.272,0.150,0.092,south-southwest,7.0,No
2019/05/17,20:30,0.196,0.185,0.297,0.281,0.273,0.150,0.092,south-southwest,6.2,No
2019/05/17,20:40,0.197,0.185,0.299,0.282,0.272,0.150,0.092,south-southwest,6.2,No
2019/05/17,20:50,0.196,0.185,0.298,0.282,0.272,0.149,0.091,south-southwest,7.3,No
2019/05/17,21:00,0.197,0.184,0.299,0.281,0.273,0.149,0.091,south-southwest,6.5,No
2019/05/17,21:10,0.196,0.185,0.298,0.282,0.273,0.149,0.091,south-southwest,6.2,No
2019/05/17,21:20,0.196,0.183,0.298,0.281,0.274,0.149,0.092,south-southwest,6.7,No
2019/05/17,21:30,0.195,0.184,0.298,0.282,0.272,0.149,0.091,south-southwest,6.5,No
2019/05/17,21:40,0.196,0.183,0.298,0.283,0.275,0.150,0.091,south-southwest,6.2,No
2019/05/17,21:50,0.196,0.184,0.299,0.281,0.271,0.150,0.091,south-southwest,7.3,No
2019/05/17,22:00,0.195,0.187,0.297,0.282,0.274,0.150,0.092,south-southwest,6.7,No
2019/05/17,22:10,0.196,0.183,0.300,0.280,0.271,0.150,0.091,south-southwest,6.7,No
2019/05/17,22:20,0.196,0.183,0.297,0.282,0.274,0.149,0.091,south-southwest,7.1,No
2019/05/17,22:30,0.196,0.184,0.299,0.281,0.271,0.150,0.092,south-southwest,7.6,No
2019/05/17,22:40,0.196,0.184,0.298,0.282,0.272,0.150,0.091,south,7.9,No
2019/05/17,22:50,0.197,0.183,0.300,0.280,0.272,0.149,0.092,south-southwest,6.7,No
2019/05/17,23:00,0.196,0.185,0.297,0.281,0.272,0.149,0.091,south-southwest,6.2,No
2019/05/17,23:10,0.196,0.183,0.297,0.281,0.274,0.150,0.091,south-southwest,5.9,No
2019/05/17,23:20,0.196,0.184,0.299,0.280,0.272,0.150,0.091,south-southwest,5.9,No
2019/05/17,23:30,0.196,0.184,0.298,0.282,0.275,0.150,0.091,south-southwest,6.2,No
2019/05/17,23:40,0.196,0.185,0.299,0.281,0.272,0.149,0.091,south-southwest,7.3,No
2019/05/17,23:50,0.196,0.183,0.298,0.282,0.274,0.149,0.092,south-southwest,7.1,No
